#timestamp,LO_Frequency,Hit,StdDev 
1514170815.2,286046988.7,Y
1514170835.1,286046993.8,P
1514170836.0,286046993.8,P
1514170855.8,286046995.9,P
1514170875.6,286046994.5,Y
1514170895.5,286047002.7,P
1514170915.3,286047001.7,N
1514170935.1,286047000.0,N
1514170955.8,286047004.0,N
1514170975.7,286047003.5,N
1514170995.5,286047006.1,N
1514171015.3,286047007.1,N
1514171035.2,286047004.1,N
1514171055.0,286047001.9,N
1514171055.9,286047001.9,N
1514171075.7,286047001.6,N
1514171095.6,286047009.0,N
1514171115.4,286047005.9,N
1514171135.2,286047003.1,N
1514171155.1,286047008.5,N
1514171156.0,286047008.5,N
1514171175.8,286047010.8,Y
1514171195.6,286047001.7,P
1514171215.5,286047000.0,N
1514171235.3,286046999.5,N
1514171255.1,286046996.5,N
1514171275.9,286046999.3,N
1514171295.7,286046999.5,N
1514171315.5,286046998.9,N
1514171335.4,286046997.0,N
1514171355.2,286046995.6,N
1514171375.0,286046995.7,N
1514171375.9,286046995.7,N
1514171395.7,286046998.0,N
1514171415.6,286046993.4,N
1514171435.4,286046995.8,N
1514171455.2,286046996.5,N
1514171475.1,286046997.5,N
1514171476.0,286046997.5,N
1514171495.8,286047000.6,N
1514171515.6,286046998.3,N
1514171535.5,286047002.6,N
1514171555.3,286047000.7,N
1514171575.1,286047002.8,N
1514171595.9,286047002.8,N
1514171615.7,286047002.2,N
1514171635.5,286047000.8,N
1514171655.4,286046999.7,N
1514171675.2,286047002.7,N
1514171695.0,286047001.6,N
1514171695.9,286047001.6,N
1514171715.7,286047006.0,N
1514171735.6,286047005.6,N
1514171755.4,286047007.8,N
1514171775.3,286047010.6,Y
1514171795.1,286047013.5,P
1514171796.0,286047013.5,N
1514171815.8,286047013.8,N
1514171835.6,286047014.9,N
1514171855.5,286047018.9,Y
1514171875.3,286047008.5,P
1514171895.1,286047007.2,P
1514171915.9,286047007.6,P
1514171935.7,286047004.9,Y
1514171955.6,286046996.5,P
1514171975.4,286046994.5,N
1514171995.2,286046995.0,N
1514172015.0,286046999.6,N
1514172015.9,286046999.6,N
1514172035.8,286046999.5,N
1514172055.6,286046996.0,N
1514172075.4,286046991.7,N
1514172095.3,286046990.1,N
1514172115.1,286046992.9,N
1514172135.8,286046992.4,N
1514172155.7,286047000.4,N
1514172175.5,286046996.7,N
1514172195.3,286046998.5,N
1514172215.2,286046995.6,N
1514172235.9,286046990.2,N
1514172255.7,286046991.0,N
1514172275.5,286046990.6,N
1514172295.4,286046993.0,N
1514172315.2,286046990.3,N
1514172335.0,286046991.5,N
1514172335.9,286046991.5,N
1514172355.8,286046989.9,N
1514172375.6,286046985.9,Y
1514172395.4,286046991.6,P
1514172415.3,286046993.2,P
1514172435.1,286046989.4,P
1514172455.8,286046985.2,Y
1514172475.7,286046991.8,P
1514172495.5,286046990.2,P
1514172515.3,286046990.2,P
1514172535.2,286046990.2,Y
1514172555.0,286046998.5,P
1514172555.9,286046998.5,N
1514172575.7,286047000.9,N
1514172595.6,286047003.6,N
1514172615.4,286047007.4,N
1514172635.2,286047004.2,N
1514172655.1,286047004.0,N
1514172656.0,286047004.0,N
1514172675.8,286047003.6,N
1514172695.6,286047005.6,N
1514172715.5,286047004.8,N
1514172735.3,286047003.1,N
1514172755.1,286047007.5,N
1514172775.9,286047007.5,N
1514172795.7,286047004.8,N
1514172815.5,286047009.1,N
1514172835.4,286047009.4,N
1514172855.2,286047013.8,Y
1514172875.0,286047008.0,P
1514172875.9,286047008.0,P
1514172895.8,286047008.8,P
1514172915.6,286047010.1,Y
1514172935.4,286047002.9,P
1514172955.3,286047003.3,N
1514172975.1,286047004.7,N
1514172976.0,286047004.7,N
1514172995.8,286047008.3,Y
1514173015.7,286047003.6,P
1514173035.5,286047003.6,P
1514173055.3,286047003.1,P
1514173075.2,286047005.7,Y
1514173095.9,286047004.2,P
1514173115.7,286047001.3,P
1514173135.6,286047004.4,P
1514173155.4,286047003.6,N
1514173175.2,286047001.9,N
1514173195.0,286047002.5,N
1514173196.0,286047002.5,N
1514173215.8,286047001.6,N
1514173235.6,286047001.3,N
1514173255.5,286047004.9,Y
1514173275.3,286047004.8,P
1514173295.1,286047004.0,P
1514173315.8,286047000.2,N
1514173335.7,286046998.3,N
1514173355.5,286047000.3,N
1514173375.3,286046995.3,N
1514173395.2,286046995.5,N
1514173415.9,286046997.8,N
1514173435.7,286046993.6,N
1514173455.6,286046993.6,N
1514173475.4,286046994.0,N
1514173495.2,286046990.1,N
1514173515.1,286046994.2,N
1514173516.0,286046994.2,N
1514173535.8,286046994.2,N
1514173555.6,286046992.4,N
1514173575.5,286046995.7,N
1514173595.3,286046997.9,N
1514173615.1,286046994.0,N
1514173635.8,286046991.2,N
1514173655.7,286046990.0,N
1514173675.5,286046988.2,N
1514173695.3,286046989.4,N
1514173715.2,286046992.6,N
1514173735.9,286046993.1,N
1514173755.7,286046987.1,Y
1514173775.6,286046992.7,P
1514173795.4,286046990.2,P
1514173815.2,286046990.4,P
1514173835.1,286046991.9,Y
1514173836.0,286046991.9,P
1514173855.8,286047002.6,P
1514173875.6,286047000.1,N
1514173895.5,286047001.5,N
1514173915.3,286046998.0,N
1514173935.1,286046993.7,N
1514173955.9,286046993.0,N
1514173975.7,286046992.0,N
1514173995.5,286046995.2,N
1514174015.4,286047001.2,N
1514174035.2,286047001.5,N
1514174055.0,286047000.0,N
1514174055.9,286047000.0,N
1514174075.7,286046999.7,N
1514174095.6,286047001.5,N
1514174115.4,286047005.2,N
1514174135.2,286047008.6,N
1514174155.1,286047012.0,N
1514174156.0,286047012.0,N
1514174175.8,286047010.4,N
1514174195.6,286047008.4,N
1514174215.5,286047012.0,N
1514174235.3,286047010.3,N
1514174255.1,286047008.4,N
1514174275.9,286047010.2,N
1514174295.7,286047009.9,N
1514174315.5,286047011.9,N
1514174335.4,286047012.0,N
1514174355.2,286047010.1,N
1514174375.0,286047010.8,N
1514174375.9,286047010.8,N
1514174395.7,286047009.8,N
